Погода в Студенке

Чехия     49°42′43″N   18°04′15″E
темп.,
°C
ветер,
м/с
пор.,
м/с
влажн.,
%
обл.,
%
осадки,
мм/ч
давл.,
гПа
погр.,
м
20 июня, вс
вс2023:00+19зсз228651 0.0 101413
02:00+18юз11880 0.0 101411
05:00+17ю11892 0.0 101311
08:00+23юз23720 0.0 1013276
11:00+27юз12550 0.0 1012898
14:00+29ююз22435 0.0 10112348
17:00+30зюз124153 0.0 10102291
20:00+25всв126884 0.0 100931
21 июня, пн
пн2123:00+20ссз01800 0.0 101011
02:00+18зюз11855 0.0 100911
05:00+18ю11855 0.0 100811
08:00+23ююв116842 0.0 1008181
11:00+28ююз245443 0.0 10081241
14:00+30зюз244397 0.0 10062359
17:00+28юз565948 0.0 1006912
20:00+25зюз23736 0.0 100638
22 июня, вт
вт2223:00+18ссв31097100 5.1 1010435
02:00+18в3899100 12.3 1009257
05:00+17с3698100 0.3 1009293
08:00+19ссв4692100 0.4 1011430
11:00+22ссв457858 0.6 1012776
14:00+24ссв557073 0.6 10121007
17:00+24ссв567126 0.0 1012868
20:00+21с48876 0.8 1012286
23 июня, ср
ср2323:00+18с35960 2.5 1012112
02:00+17с239898 2.6 101260
05:00+17ссв1197100 1.0 101211
08:00+22ююз23841 1.1 1013315
11:00+24зюз66691 0.0 1014778
14:00+26зюз66530 0.0 10151016
17:00+25з55590 0.0 1016905
20:00+20ссв36800 0.0 1017199
24 июня, чт
чт2423:00+16ссв49949 0.0 1019315
02:00+13с37966 0.2 1020226
05:00+12ссв359554 0.3 1019176
08:00+15ссв468460 0.3 1019424
11:00+20св55716 0.0 1018663
14:00+24св456666 0.5 1016659
17:00+26всв347033 2.0 1014657
20:00+18ююз3792100 18.6 1013222